Find Starlink 30140

NORAD ID: 57458 Int'l Des: 2023-107 Owner: SPXS Country: US Constellation: starlink operational
LEOCIRCULAR

Live-Position

3D-Globus wird geladen...

Über Starlink 30140

Beschreibung wird geladen...

Nächste Überflüge

Passes for default location (London). Set your location on the main map for personalized predictions.

Höhenverlauf

Loading altitude history...

Zweizeiliger Elementsatz

1 57458U 23107B 26129.92529441 -.00000122 00000-0 51030-5 0 9998
2 57458 43.0037 353.5734 0001437 286.9998 73.0696 15.27583957154478
Epoch: 9. Mai 2026 • Age: 17 hours

Aktueller Status

Höhe 482.1 km
Geschwindigkeit 7.63 km/s
Subsatellitenpunkt 4.02°N, 107.06°W
Startdatum 28. Juli 2023
Alter 2.7 years
Typ internet

Technische Details

Klassifizierung Payload
Masse 730.00 kg
Trockenmasse 700.00 kg
Gesamtmasse 730.00 kg
Länge 0.30 m
Durchmesser 4.10 m
Spannweite 29.00 m
Form Box + pan
Hersteller SPXS
Bus-Typ Starlink V2M
Phasenstatus In Orbit
Besitzer/Staat SPXS/US

Most Searched